Regional Weather Roundup
Issued by NWS Binghamton, NY

Home | Current Version | Previous Version | Text Only | Print | Product List | Glossary On
Versions: 1 2 3 4 5 6 7 8 9 10 11 12 13 14 15 16 17 18 19 20 21 22 23 24 25 26 27 28 29 30 31 32 33 34 35 36 37 38 39 40 41 42 43 44 45 46 47 48 49 50
000
ASUS41 KBGM 221910
RWRBGM

REGIONAL WEATHER ROUNDUP
NATIONAL WEATHER SERVICE BINGHAMTON NY
300 PM EDT TUE MAY 22 2018

Note: "fair" indicates few or no clouds below 12,000 feet with no
significant weather and/or obstructions to visibility.

* = Station(s) that does not report precipitation, such as rain,
snow, etc, also no thunder or fog.

NYZ009-015>018-022>025-036-037-044>046-055>057-062-222000
...Central New York...

CITY           SKY/WX    TMP DP  RH WIND       PRES   REMARKS
Binghamton     LGT RAIN  58  57  97 S10       30.00F FOG
Dansville      PTSUNNY   77  61  57 SW9G22    29.92F
Elmira         CLOUDY    69  66  90 CALM      29.96F
Ithaca         PTSUNNY   64  62  93 S9        29.98F
Monticello     NOT AVBL
Penn Yan       CLOUDY    71  63  75 S9        29.93F
Rome           CLOUDY    57  55  94 E10       29.99F
Sidney         CLOUDY    57  54  88 S6G20     30.02F
Syracuse       CLOUDY    65  63  93 S8        29.91F
$$

PAZ038>040-043-044-047-048-072-222000
...Northeast Pennsylvania...

CITY           SKY/WX    TMP DP  RH WIND       PRES   REMARKS
Hazleton       HVY RAIN  57  55  94 SE3       30.09F
Scranton       LGT RAIN  58  54  86 VRB3      30.06F
$$
&&
KEY
WCI = Wind Chill Index
VSB = Visibility
HX  = Heat Index
$$



USA.gov is the U.S. government's official web portal to all federal, state and local government web resources and services.